Starlink 32623

operational
NORAD ID: 62152 Int'l Des: 2024-224 Owner: SPXS Country: US Constellation: starlink
LEOCIRCULAR

Starlink 32623について

説明を読み込み中...

リアルタイム位置

3D地球を読み込み中...

次回通過

高度履歴

Altitude vs Time

uPlot chart will show altitude changes over time

軌道要素

1 62152U 24224P 25258.46656848 .00040976 00000-0 14887-2 0 9995
2 62152 43.0046 70.9842 0000784 274.4234 85.6528 15.27616273 45586
Epoch: Sep 15, 2025 • Age: 14 hours

現在のステータス

高度 491.2 km
速度 7.62 km/s
衛星直下点 -32.11°S, 13.99°E
打ち上げ日 Nov 30, 2024
運用期間 0.7 years
タイプ internet

技術仕様

分類 Payload
質量 730.00 kg
乾燥質量 700.00 kg
総質量 730.00 kg
長さ 0.30 m
直径 4.10 m
スパン 29.00 m
形状 Box + pan
製造者 SPXS
バスタイプ Starlink V2M
フェーズステータス In Orbit
所有者/国 SPXS/US

大規模コンステレーション

Loading constellations...